Location: Kra?nica
(53.4833°N, 14.6167°E)
Time: 20:39:45
(UTC+00:00)

ALOS - Pass Details

Date: 23 May 2024
Orbit: 672 x 676 km, 98.0° (Epoch: 21 June)

Event Time Altitude Azimuth Distance (km) Brightness Sun altitude
Rises 01:19:56 0° 19° (NNE) 3,042 7.4 -9.8°
Reaches altitude 10° 01:22:20 10° 28° (NNE) 2,122 6.4 -9.6°
Maximum altitude 01:26:40 38° 97° (E) 1,028 3.5 -9.3°
Drops below altitude 10° 01:30:57 10° 166° (SSE) 2,104 4.4 -8.9°
Enters shadow 01:32:47 - 173° (S) 2,805 5.0 -8.7°
